Location: Zagreb
(45.8000°N, 16.0000°E)
Time: 00:44:59
(UTC+01:00)

Transit 2A Rocket - Pass Details

Date: 03 October 2020
Orbit: 586 x 916 km, 66.7° (Epoch: 28 October)

Event Time Altitude Azimuth Distance (km) Brightness Sun altitude
Rises 16:50:47 0° 214° (SSW) 3,510 9.4 16.1°
Reaches altitude 10° 16:53:17 10° 215° (SW) 2,590 8.9 15.8°
Maximum altitude 16:59:23 82° 304° (WNW) 929 5.8 14.8°
Drops below altitude 10° 17:05:29 10° 32° (NNE) 2,580 7.3 13.8°
Sets 17:07:57 0° 33° (NNE) 3,496 7.9 13.4°
